User: anonymous   Login
Location: Unspecified
(0.0000°N, 0.0000°E)
Time: 18:06:23
(UTC+00:00)
Language:

TBA - TO BE ASSIGNED - Orbit

View from above orbital plane
View from above orbital plane
View from above satellite
View from above satellite

Ground track
Ground track

The orbit is defined by the following mean orbital elements,

1 68609U          26145.50003470 +.00000000 +00000-0 +21047-2 0 00005
2 68609  97.2851 345.0014 0001855  94.2925 285.3113 15.49105408    00
Epoch (UTC): 25 May 2026 12:00:02
Eccentricity: 0.0001855
inclination: 97.2851°
perigee height: 418 km
apogee height: 421 km
right ascension of ascending node: 345.0014°
argument of perigee: 94.2925°
revolutions per day: 15.49105408
mean anomaly at epoch: 285.3113°

The dashed part of the orbit path shows where the satellite is in the earth's shadow,  

DLR